EW9824 Weather Reports


time (UTC)temp
C
wind
direction
speed
KPH
gust
KPH
rain 1hr
cm
rain 24hr
cm
rain mn
cm
humidity
%
barometer
mb
20260503071531 11 173 3.2 9.7 0.00 0.03 0.00 77 1017.6
20260503054532 13 178 3.2 6.4 0.00 0.03 0.03 73 1017.4
20260503053032 13 147 4.8 8.0 0.00 0.03 0.03 74 1017.4
20260503050030 14 148 0.0 4.8 0.00 0.03 0.03 70 1017.3
20260503044543 15 157 0.0 3.2 0.00 0.03 0.03 65 1017.3
20260503041531 17 150 4.8 9.7 0.00 0.03 0.03 60 1017.0
20260503040040 18 163 4.8 9.7 0.00 0.03 0.03 58 1016.8
20260503031529 19 168 4.8 11.3 0.00 0.03 0.03 58 1016.2
20260503024529 20 160 3.2 8.0 0.00 0.03 0.03 61 1015.7
20260503023032 21 150 3.2 4.8 0.00 0.03 0.03 56 1015.6
20260503021528 22 135 3.2 6.4 0.00 0.03 0.03 51 1015.5
20260503014530 23 112 0.0 3.2 0.00 0.03 0.03 40 1015.4
20260503013037 24 53 1.6 8.0 0.00 0.03 0.03 37 1015.5
20260503011542 25 82 4.8 14.5 0.00 0.03 0.03 35 1015.5
20260503010032 25 9 4.8 14.5 0.00 0.03 0.03 33 1015.5
20260503004527 25 359 1.6 4.8 0.00 0.03 0.03 34 1015.4
20260503003029 25 64 6.4 17.7 0.00 0.03 0.03 34 1015.4
20260503001531 25 104 8.0 25.7 0.00 0.03 0.03 33 1015.5
20260503000103 25 89 8.0 19.3 0.00 0.03 0.03 32 1015.6
20260502233107 26 75 4.8 16.1 0.00 0.03 0.03 32 1015.8
20260502231530 26 29 6.4 22.5 0.00 0.03 0.03 31 1016.0
20260502224530 26 99 6.4 19.3 0.00 0.03 0.03 31 1016.4
20260502223104 26 93 11.3 29.0 0.00 0.03 0.03 31 1016.5
20260502221531 27 98 14.5 29.0 0.00 0.03 0.03 32 1016.6
20260502220035 26 107 9.7 24.1 0.00 0.03 0.03 37 1016.7
20260502214608 25 332 6.4 12.9 0.00 0.03 0.03 43 1016.8
20260502213031 23 327 6.4 16.1 0.00 0.03 0.03 46 1017.0
20260502211533 23 328 8.0 12.9 0.00 0.03 0.03 49 1017.1
20260502210030 22 286 4.8 9.7 0.00 0.03 0.03 53 1017.3
20260502204530 22 292 3.2 11.3 0.00 0.03 0.03 54 1017.4
20260502203031 21 307 6.4 12.9 0.00 0.03 0.03 56 1017.3
20260502201645 22 306 6.4 12.9 0.00 0.03 0.03 53 1017.4
20260502200028 22 244 3.2 6.4 0.03 0.03 0.03 56 1017.6
20260502194604 21 322 1.6 6.4 0.03 0.03 0.03 60 1017.9
20260502193033 18 230 1.6 8.0 0.03 0.03 0.03 73 1017.9
20260502191529 17 241 4.8 8.0 0.03 0.03 0.00 69 1018.2
20260502184532 18 264 3.2 6.4 0.00 0.00 0.00 61 1018.9
20260502183032 18 85 0.0 6.4 0.00 0.00 0.00 59 1018.9
20260502161533 14 265 1.6 6.4 0.00 0.00 0.00 79 1018.6
20260502140106 10 158 3.2 6.4 0.00 0.00 0.00 93 1017.6
20260502123032 10 152 0.0 4.8 0.00 0.00 0.00 90 1017.2
20260502121529 10 172 1.6 4.8 0.00 0.00 0.00 89 1017.2
20260502120147 10 155 1.6 4.8 0.00 0.00 0.00 89 1017.3
20260502113033 11 191 3.2 6.4 0.00 0.00 0.00 87 1017.5
20260502111531 11 161 3.2 6.4 0.00 0.00 0.00 87 1017.5
20260502110031 11 132 4.8 9.7 0.00 0.00 0.00 87 1017.6
20260502104644 11 214 4.8 8.0 0.00 0.00 0.00 86 1017.6
20260502103031 11 119 3.2 6.4 0.00 0.00 0.00 87 1017.8
20260502091532 11 246 0.0 4.8 0.00 0.00 0.00 86 1018.2